sat.trackr.live / text

‹ back to catalog

LEMUR-2-HUBBLE-5

NORAD 64840 · 2025-135BT

PAYLOAD ACTIVE UNKNOWN

§ Identity

Operator
Country
US
Launch date
2025-06-23
Launch site
AFWTR
Launch vehicle
Mass (kg)
RCS (m²)

Purposes: earth_obs

External: N2YO · Heavens-Above · Gunter

§ Orbital elements

Epoch: 2026-05-25T01:15:19.413792Z

Period
96.38 min
Inclination
97.7692°
Eccentricity
0.0006744
Mean motion
14.94051501 rev/d
Perigee alt
580.6 km
Apogee alt
590.0 km
Semi-major
6,963.5 km
B*
1.3611e-4
RAAN
259.8397°
Arg perigee
64.7336°
Mean anomaly
295.4582°
Rev number
5,045

§ Raw data

LEMUR-2-HUBBLE-51 64840U 25135BT  26145.05230803  .00001396  00000+0  13611-3 0  99902 64840  97.7692 259.8397 0006744  64.7336 295.4582 14.94051501 50456

JSON: /api/v1/satellites/64840 · /tle

For live sub-satellite position, see the globe view (requires WebGL).

§ Visibility from observer

Set your observer location to see the next 7 days of passes ≥ 10°. The values pass through the URL so the page stays shareable.

No JS? Fill the form by hand. The geolocation button needs JavaScript.

§ Radio — SatNOGS DB

ModeDescriptionDownlinkUplink
FM Mode S - Transmitter 1 2.201 GHz
FM Mode S - Transmitter 2 2.023 GHz
FSK Mode U - FSK9k6 402.790 MHz
GMSK Mode U - GMSK4k8 (inactive) 401.100 MHz

4 transmitters · refreshed weekly from db.satnogs.org